[[{"header":{"parameterUnit":"m.s-1","parameterCategory":1,"la1":30.2991,"la2":30.254,"lo1":-89.0895,"lo2":-89.0444,"dy":0.0017,"dx":0.0017,"nx":28,"ny":28,"refTime":"2025-12-30T09:00:00:Z","depth":0,"parameterNumber":2,"parameterNumberName":"U-component_of_WINDS"},"data":[0,0,0,0,0,0,0,0,0,0,0,0,0,0,0,0,0,0,0,0,0,0,0,0,0,0,0,0,0,0,0,0,0,0,0,0,0,0,0,0,0,0,0,0,0,0,0,0,0,0,0,0,0,0,0,0,0,0,1.5335,1.5335,0,1.5326,1.5326,1.5326,1.5304,1.5304,1.5303,1.5303,1.5293,1.5293,1.5293,0,0,0,0,0,0,0,0,0,0,0,0,0,1.5335,1.5335,1.5335,1.5335,1.5335,1.5326,1.5326,1.5325,1.5304,1.5304,1.5303,1.5303,1.5293,1.5293,1.5293,0,0,0,0,0,0,0,0,0,0,0,0,0,1.5331,1.5335,1.5335,1.5323,1.5322,1.5326,1.5326,1.5325,1.5304,1.5304,1.5303,1.5303,1.5292,1.5293,1.5293,1.5307,0,0,1.5293,1.5293,0,0,0,0,0,0,0,0,1.5332,1.5331,1.5325,1.5324,1.5323,1.5316,1.5322,1.5319,1.5305,1.5311,1.5303,1.5302,1.5301,1.53,1.53,1.5307,1.5306,1.5293,1.5294,1.5294,1.5294,0,0,0,0,0,0,0,1.5332,1.5332,1.5331,1.5325,1.5324,1.5319,1.5317,1.5321,1.531,1.5311,1.5309,1.5308,1.53,1.53,1.5299,1.5306,1.5293,1.5294,1.5294,1.5294,1.5325,1.5325,0,0,0,0,0,0,1.5334,1.5332,1.5332,1.5331,1.5326,1.5319,1.5318,1.5319,1.531,1.5308,1.5309,1.5307,1.53,1.5299,1.5299,1.5315,1.5294,1.5294,1.5294,1.5324,1.5325,1.5326,0,0,0,0,0,0,1.5334,1.5334,1.5332,1.5331,1.533,1.532,1.5321,1.5319,1.5318,1.5308,1.5306,1.5311,1.5299,1.5299,1.5305,1.5314,1.5294,1.5294,1.5323,1.5324,1.5325,1.5347,0,0,0,0,0,0,1.5334,1.5334,1.5339,1.5331,1.5331,1.5339,1.5321,1.5319,1.5319,1.5317,1.5309,1.5307,1.5299,1.5305,1.5306,1.5314,1.5294,1.5322,1.5324,1.5325,1.5346,1.5349,1.5352,0,0,0,0,0,1.5334,1.5345,1.534,1.534,1.5337,1.5339,1.5339,1.5328,1.532,1.5325,1.5319,1.5308,1.5314,1.5306,1.5306,1.5315,1.5322,1.5323,1.5325,1.5344,1.5348,1.5352,0,0,0,0,0,0,1.5354,1.5344,1.5337,1.5347,1.5344,1.5336,1.5341,1.5333,1.5332,1.533,1.5318,1.5316,1.5325,1.5321,1.5312,1.5329,1.5316,1.5318,1.5331,1.5335,1.5338,1.5338,1.5294,0,0,0,0,0,1.5359,1.5362,1.5354,1.5362,1.5362,1.5352,1.5353,1.5345,1.5342,1.534,1.5334,1.5331,1.5333,1.5334,1.5334,1.5346,1.5344,1.5352,1.5355,1.5358,1.5359,1.5365,1.5369,1.5331,1.5331,1.5331,0,0,1.537,1.5365,1.5368,1.5366,1.5363,1.5367,1.5351,1.5355,1.5357,1.5341,1.5347,1.5343,1.5339,1.5348,1.5352,1.5345,1.537,1.536,1.5362,1.5362,1.5367,1.5371,1.5374,1.5332,1.5332,1.5332,0,0,1.5392,1.5389,1.5396,1.5394,1.539,1.5384,1.5386,1.5379,1.5376,1.5382,1.537,1.5373,1.5375,1.5373,1.5372,1.5395,1.5385,1.5396,1.5411,1.5418,1.5421,1.5423,1.5431,1.5434,1.5398,1.5398,1.5398,0,1.5406,1.541,1.5401,1.5406,1.5406,1.5392,1.5399,1.5398,1.5394,1.5394,1.5387,1.5391,1.5387,1.5396,1.5402,1.5402,1.5404,1.5396,1.5421,1.5424,1.5426,1.5433,1.5437,1.5399,1.5399,1.5399,1.5399,0,1.5428,1.5431,1.5438,1.5435,1.5436,1.5442,1.5434,1.5436,1.5429,1.5424,1.5431,1.5426,1.5426,1.5428,1.5421,1.5436,1.5432,1.5424,1.541,1.5431,1.5438,1.5441,1.5401,1.54,1.54,1.54,0,0,1.5459,1.5453,1.5455,1.5454,1.545,1.5453,1.5459,1.5459,1.5461,1.546,1.5465,1.5468,1.5461,1.546,1.5453,1.5459,1.5477,1.5449,1.5449,1.5454,1.5494,1.55,1.5503,1.5472,1.5472,1.5472,1.5494,0,1.5479,1.5489,1.5481,1.5493,1.5496,1.5484,1.549,1.5488,1.5484,1.5486,1.5482,1.5484,1.5474,1.5474,1.5479,1.5474,1.5485,1.5472,1.5475,1.5476,1.5476,1.5507,1.5513,1.5533,1.5497,1.5497,1.5498,0,1.5503,1.5503,1.5515,1.5511,1.5512,1.5517,1.5518,1.552,1.5518,1.5515,1.5515,1.5507,1.5514,1.5502,1.551,1.5502,1.5503,1.5501,1.5502,1.55,1.5487,1.5506,1.5539,1.5542,1.5502,1.5501,1.5501,0,1.5524,1.5528,1.5535,1.5535,1.5531,1.5535,1.5533,1.5531,1.5532,1.5533,1.5533,1.5535,1.5535,1.5537,1.5529,1.5521,1.5539,1.5526,1.5536,1.5536,1.5539,1.5538,1.5572,1.5541,1.5541,1.5541,1.5541,0,1.5546,1.5554,1.5545,1.555,1.5558,1.555,1.5559,1.5556,1.5554,1.5558,1.5549,1.5553,1.5544,1.5547,1.5542,1.555,1.555,1.5547,1.5546,1.5548,1.5548,1.5547,1.5545,1.5542,1.5542,1.5542,1.5542,0,1.557,1.5565,1.5572,1.5569,1.5568,1.5574,1.5571,1.5575,1.5571,1.5577,1.5578,1.5572,1.5575,1.5569,1.5571,1.5568,1.5579,1.5575,1.5579,1.5578,1.5587,1.5586,1.5621,1.5625,1.5593,1.5593,1.5593,0,1.5584,1.559,1.5587,1.5589,1.5588,1.5592,1.5594,1.5587,1.5589,1.5588,1.5592,1.5595,1.5597,1.5604,1.5599,1.5602,1.5597,1.561,1.5598,1.56,1.5597,1.5596,1.5597,1.5612,1.5612,1.5612,1.5613,0,1.5609,1.5606,1.5609,1.5611,1.5613,1.5615,1.5615,1.5618,1.561,1.5613,1.5617,1.5619,1.5622,1.5625,1.5627,1.5625,1.5618,1.5617,1.5619,1.562,1.5622,1.5621,1.5585,1.5615,1.5615,1.5615,1.5615,1.5615,1.5628,1.5632,1.5632,1.5635,1.5635,1.5636,1.564,1.5638,1.5641,1.5643,1.5639,1.5644,1.5644,1.5645,1.5645,1.5649,1.5643,1.5647,1.5647,1.5648,1.5649,1.5623,1.5649,1.5649,1.5649,1.5649,1.5649,0,1.5651,1.5651,1.5654,1.5656,1.5659,1.5653,1.5654,1.5657,1.5661,1.5662,1.5664,1.5669,1.5673,1.567,1.5672,1.5676,1.5673,1.5677,1.5676,1.5676,1.5654,1.5652,1.568,1.568,1.568,1.568,1.568,1.568,1.5664,1.5672,1.567,1.5678,1.5677,1.5682,1.5683,1.5685,1.5685,1.5691,1.5694,1.5692,1.5692,1.5695,1.5698,1.5697,1.5698,1.5704,1.5701,1.5681,1.5677,1.5675,1.5672,1.5704,1.5704,1.5723,1.5723,1.5723]},{"header":{"parameterUnit":"m.s-1","parameterCategory":1,"la1":30.2991,"la2":30.254,"lo1":-89.0895,"lo2":-89.0444,"dy":0.0017,"dx":0.0017,"nx":28,"ny":28,"refTime":"2025-12-30T09:00:00:Z","depth":0,"parameterNumber":3,"parameterNumberName":"V-component_of_WINDS"},"data":[0,0,0,0,0,0,0,0,0,0,0,0,0,0,0,0,0,0,0,0,0,0,0,0,0,0,0,0,0,0,0,0,0,0,0,0,0,0,0,0,0,0,0,0,0,0,0,0,0,0,0,0,0,0,0,0,0,0,-6.603,-6.6033,0,-6.6245,-6.6247,-6.625,-6.6193,-6.6189,-6.6184,-6.618,-6.6396,-6.6405,-6.6415,0,0,0,0,0,0,0,0,0,0,0,0,0,-6.5567,-6.5576,-6.603,-6.6033,-6.6036,-6.6245,-6.6248,-6.625,-6.6194,-6.6188,-6.6183,-6.6178,-6.6393,-6.6404,-6.6416,0,0,0,0,0,0,0,0,0,0,0,0,0,-6.5773,-6.5579,-6.603,-6.6033,-6.6035,-6.6244,-6.6248,-6.6251,-6.6195,-6.6188,-6.6182,-6.6176,-6.6389,-6.6403,-6.6418,-6.6636,0,0,-6.6462,-6.6468,0,0,0,0,0,0,0,0,-6.5762,-6.5791,-6.6029,-6.6033,-6.6036,-6.6186,-6.6163,-6.638,-6.6196,-6.6134,-6.618,-6.6173,-6.6331,-6.635,-6.6404,-6.6646,-6.6655,-6.6463,-6.6472,-6.6479,-6.6483,0,0,0,0,0,0,0,-6.5748,-6.5781,-6.6115,-6.6033,-6.6037,-6.6022,-6.6044,-6.6204,-6.6266,-6.6139,-6.6135,-6.6162,-6.6331,-6.639,-6.6409,-6.6658,-6.6463,-6.6476,-6.6485,-6.6491,-6.7089,-6.7096,0,0,0,0,0,0,-6.5731,-6.5769,-6.6108,-6.6121,-6.588,-6.6035,-6.606,-6.6144,-6.6264,-6.6276,-6.6167,-6.6158,-6.6368,-6.6392,-6.6416,-6.6679,-6.6478,-6.6492,-6.65,-6.7082,-6.709,-6.7098,0,0,0,0,0,0,-6.5722,-6.5762,-6.61,-6.5945,-6.5986,-6.605,-6.6145,-6.6152,-6.621,-6.6285,-6.6295,-6.6216,-6.6364,-6.6396,-6.6582,-6.6686,-6.6499,-6.6512,-6.7073,-6.7084,-6.7094,-6.7208,0,0,0,0,0,0,-6.5709,-6.5759,-6.5844,-6.5947,-6.5995,-6.6264,-6.6151,-6.616,-6.6236,-6.6227,-6.6334,-6.6345,-6.6362,-6.656,-6.6596,-6.6703,-6.6523,-6.7064,-6.7078,-6.7091,-6.7195,-6.7221,-6.7243,0,0,0,0,0,-6.5692,-6.5866,-6.5848,-6.589,-6.6102,-6.627,-6.6297,-6.6313,-6.6245,-6.633,-6.6378,-6.6342,-6.6669,-6.658,-6.662,-6.6732,-6.7058,-6.7074,-6.709,-6.7184,-6.7216,-6.7243,0,0,0,0,0,0,-6.5773,-6.588,-6.5861,-6.6074,-6.6163,-6.626,-6.6367,-6.6346,-6.6456,-6.6443,-6.6457,-6.6481,-6.6672,-6.672,-6.662,-6.6949,-6.6853,-6.6878,-6.6911,-6.6942,-6.6965,-6.695,-6.6535,0,0,0,0,0,-6.5815,-6.5943,-6.603,-6.6209,-6.6255,-6.6304,-6.6377,-6.6382,-6.6474,-6.6512,-6.6573,-6.6663,-6.6785,-6.6866,-6.6983,-6.7201,-6.7223,-6.7298,-6.7322,-6.7342,-6.7363,-6.7481,-6.7515,-6.7151,-6.7151,-6.715,0,0,-6.5904,-6.5979,-6.6059,-6.6227,-6.6297,-6.6428,-6.6336,-6.6478,-6.6575,-6.6533,-6.6713,-6.6761,-6.6862,-6.7065,-6.7157,-6.7111,-6.7468,-6.7362,-6.7377,-6.7388,-6.7501,-6.7536,-6.7566,-6.7162,-6.716,-6.7158,0,0,-6.6134,-6.6204,-6.6361,-6.6433,-6.6539,-6.6571,-6.6608,-6.6708,-6.6739,-6.692,-6.6891,-6.7005,-6.7217,-6.729,-6.7355,-6.7611,-6.7582,-6.7649,-6.7775,-6.789,-6.7919,-6.7944,-6.8035,-6.8068,-6.767,-6.767,-6.767,0,-6.6231,-6.6429,-6.6444,-6.659,-6.6664,-6.6632,-6.6791,-6.6859,-6.6999,-6.705,-6.6997,-6.7261,-6.7327,-6.7546,-6.7609,-6.7663,-6.7705,-6.7637,-6.7914,-6.7939,-6.7963,-6.805,-6.8085,-6.7677,-6.7676,-6.7676,-6.7675,0,-6.6542,-6.668,-6.6794,-6.6931,-6.7018,-6.7169,-6.7205,-6.7292,-6.7289,-6.7325,-6.7509,-6.7587,-6.7719,-6.7771,-6.7769,-6.7991,-6.7959,-6.791,-6.7813,-6.8005,-6.8087,-6.8121,-6.7688,-6.7685,-6.7683,-6.7681,0,0,-6.6829,-6.6972,-6.7014,-6.7075,-6.7191,-6.7297,-6.7446,-6.7576,-6.765,-6.7746,-6.7871,-6.805,-6.8006,-6.8079,-6.8085,-6.8186,-6.8384,-6.8124,-6.8127,-6.817,-6.8632,-6.8668,-6.8707,-6.8365,-6.8371,-6.8377,-6.8623,0,-6.7069,-6.7334,-6.7351,-6.7589,-6.7716,-6.7687,-6.7817,-6.7901,-6.7939,-6.805,-6.8091,-6.8218,-6.8149,-6.8193,-6.8292,-6.8339,-6.8477,-6.8321,-6.848,-6.8486,-6.8456,-6.8749,-6.8789,-6.9018,-6.8655,-6.8661,-6.8665,0,-6.7384,-6.7492,-6.7744,-6.7841,-6.7894,-6.8011,-6.8132,-6.8239,-6.8333,-6.8353,-6.8436,-6.8427,-6.8578,-6.8477,-6.8685,-6.8579,-6.8644,-6.8677,-6.8686,-6.8702,-6.8587,-6.8773,-6.9091,-6.9125,-6.8715,-6.8711,-6.8708,0,-6.7568,-6.7776,-6.7953,-6.8007,-6.8124,-6.8207,-6.8259,-6.8347,-6.8424,-6.8529,-6.8579,-6.8699,-6.8766,-6.8858,-6.8882,-6.8806,-6.909,-6.899,-6.911,-6.9109,-6.9171,-6.9167,-6.9504,-6.9213,-6.9213,-6.9212,-6.9211,0,-6.7834,-6.7989,-6.8038,-6.8147,-6.8319,-6.8336,-6.8506,-6.8553,-6.8631,-6.8748,-6.873,-6.8839,-6.8864,-6.8978,-6.8997,-6.9166,-6.9195,-6.9215,-6.9218,-6.9217,-6.9215,-6.9261,-6.9245,-6.9221,-6.9219,-6.9217,-6.9216,0,-6.8069,-6.8108,-6.8299,-6.8395,-6.8423,-6.8546,-6.8627,-6.8731,-6.8765,-6.8913,-6.8949,-6.9004,-6.9137,-6.9169,-6.9328,-6.934,-6.954,-6.9528,-6.9509,-6.9508,-6.9626,-6.9615,-7.0005,-7.0057,-6.9732,-6.9735,-6.9738,0,-6.8237,-6.8356,-6.8464,-6.8542,-6.8598,-6.8723,-6.8802,-6.8823,-6.8906,-6.9022,-6.9111,-6.9242,-6.9349,-6.9562,-6.9615,-6.9736,-6.9726,-6.9855,-6.9744,-6.9739,-6.9728,-6.9721,-6.9732,-6.9876,-6.9879,-6.9882,-6.9884,0,-6.853,-6.8543,-6.8658,-6.878,-6.8875,-6.8972,-6.9064,-6.9128,-6.9162,-6.9255,-6.9392,-6.9475,-6.9636,-6.9766,-6.9888,-6.994,-6.9918,-6.9919,-6.9953,-6.9953,-6.9937,-6.9947,-6.9567,-6.991,-6.9907,-6.9905,-6.9904,-6.9903,-6.8736,-6.884,-6.8933,-6.9062,-6.9134,-6.922,-6.9323,-6.9371,-6.9486,-6.962,-6.9625,-6.9774,-6.9863,-7.0024,-7.0083,-7.0198,-7.0159,-7.0209,-7.0221,-7.0233,-7.0244,-6.9919,-7.022,-7.022,-7.0219,-7.0219,-7.0218,0,-6.9028,-6.9087,-6.9205,-6.9335,-6.9436,-6.9408,-6.9508,-6.9594,-6.9725,-6.9811,-6.9916,-7.0073,-7.0199,-7.0261,-7.0385,-7.0466,-7.0459,-7.0498,-7.0492,-7.0504,-7.0272,-7.023,-7.0501,-7.0501,-7.0501,-7.0501,-7.0501,-7.0501,-6.9192,-6.9367,-6.9391,-6.96,-6.9657,-6.9803,-6.9863,-6.9942,-7.0011,-7.0187,-7.0292,-7.0332,-7.0409,-7.0538,-7.0652,-7.0667,-7.0713,-7.0758,-7.0768,-7.0549,-7.052,-7.0493,-7.0454,-7.0768,-7.0768,-7.099,-7.0992,-7.0994]}]]